LHA744 LSGS-EDDF

Flight info

Callsign LHA744
Flight time N/A
Altitude 19000
Route SAPRE Z64 MOLUS/N0446F320 N871 DITON T163 EMPAX EMPAX5A
Aircraft A319/M-SDE1E2FGIRWYZE3/S

Departure

Time 2026-05-03 21:02
Airport Sion Airport (LSGS)

Arrival

Time N/A
Airport Frankfurt Main Airport (EDDF)
Time Latitude Longitude Altitude Speed Heading
2026-05-03 20:34 46.21746 7.32300 1580 ft 0 kts 162°
2026-05-03 20:47 46.21749 7.32304 1580 ft 2 kts 179°
2026-05-03 20:48 46.21754 7.32311 1580 ft 4 kts 60°
2026-05-03 20:48 46.21746 7.32276 1580 ft 4 kts 96°
2026-05-03 20:48 46.21752 7.32242 1580 ft 4 kts 85°
2026-05-03 20:48 46.21750 7.32228 1580 ft 1 kts 73°
2026-05-03 20:51 46.21751 7.32231 1580 ft 1 kts 73°
2026-05-03 20:51 46.21754 7.32245 1580 ft 2 kts 73°
2026-05-03 20:52 46.21759 7.32270 1580 ft 3 kts 73°
2026-05-03 20:52 46.21766 7.32305 1581 ft 4 kts 73°
2026-05-03 20:52 46.21776 7.32350 1581 ft 5 kts 73°
2026-05-03 20:52 46.21787 7.32405 1581 ft 6 kts 73°
2026-05-03 20:53 46.21801 7.32470 1581 ft 7 kts 73°
2026-05-03 20:53 46.21817 7.32548 1581 ft 9 kts 73°
2026-05-03 20:53 46.21837 7.32641 1581 ft 10 kts 73°
2026-05-03 20:53 46.21859 7.32746 1581 ft 11 kts 73°
2026-05-03 20:54 46.21875 7.32823 1582 ft 12 kts 73°
2026-05-03 20:54 46.21925 7.33053 1582 ft 7 kts 73°
2026-05-03 20:54 46.21941 7.33127 1583 ft 8 kts 73°
2026-05-03 20:55 46.21959 7.33210 1583 ft 9 kts 73°
2026-05-03 20:55 46.21979 7.33304 1583 ft 11 kts 73°
2026-05-03 20:55 46.22003 7.33415 1583 ft 12 kts 73°
2026-05-03 20:55 46.22029 7.33537 1584 ft 13 kts 72°
2026-05-03 20:56 46.22057 7.33667 1584 ft 14 kts 72°
2026-05-03 20:56 46.22088 7.33808 1584 ft 15 kts 72°
2026-05-03 20:56 46.22108 7.33908 1584 ft 9 kts 74°
2026-05-03 20:56 46.22120 7.33946 1584 ft 0 kts 48°
2026-05-03 20:59 46.22121 7.33948 1584 ft 1 kts 47°
2026-05-03 21:00 46.22158 7.33949 1584 ft 10 kts 340°
2026-05-03 21:00 46.22199 7.33919 1583 ft 7 kts 302°
2026-05-03 21:00 46.22186 7.33866 1583 ft 0 kts 253°
2026-05-03 21:01 46.22185 7.33860 1583 ft 2 kts 253°
2026-05-03 21:01 46.22160 7.33738 1583 ft 39 kts 253°
2026-05-03 21:01 46.21992 7.32963 1583 ft 126 kts 253°
2026-05-03 21:02 46.21670 7.31454 1882 ft 171 kts 253°
2026-05-03 21:02 46.21203 7.29725 2500 ft 200 kts 243°
2026-05-03 21:02 46.20509 7.27842 3082 ft 226 kts 239°
2026-05-03 21:02 46.19696 7.25775 3927 ft 244 kts 239°
2026-05-03 21:03 46.18841 7.23611 5115 ft 250 kts 239°
2026-05-03 21:03 46.17887 7.21492 6377 ft 255 kts 234°
2026-05-03 21:03 46.16851 7.19384 7575 ft 259 kts 232°
2026-05-03 21:03 46.15794 7.17276 8852 ft 261 kts 232°
2026-05-03 21:04 46.14733 7.15151 10182 ft 262 kts 232°
2026-05-03 21:04 46.13643 7.12957 11077 ft 279 kts 233°
2026-05-03 21:04 46.12499 7.10636 12107 ft 287 kts 233°
2026-05-03 21:04 46.11339 7.08267 13337 ft 290 kts 234°
2026-05-03 21:05 46.10174 7.05876 14486 ft 294 kts 234°
2026-05-03 21:05 46.08989 7.03442 15540 ft 297 kts 234°
2026-05-03 21:05 46.07801 7.00992 16486 ft 301 kts 234°
2026-05-03 21:05 46.06592 6.98502 17373 ft 306 kts 234°
2026-05-03 21:06 46.05365 6.95984 18249 ft 310 kts 234°
2026-05-03 21:06 46.04105 6.93409 18773 ft 322 kts 234°
2026-05-03 21:06 46.02772 6.90689 18956 ft 344 kts 234°
2026-05-03 21:06 46.01347 6.87780 19009 ft 368 kts 235°
2026-05-03 21:07 46.00131 6.84468 19011 ft 392 kts 250°
2026-05-03 21:07 45.99726 6.80469 19006 ft 416 kts 270°
2026-05-03 21:07 46.00353 6.76317 18998 ft 429 kts 288°
2026-05-03 21:07 46.01771 6.72668 19009 ft 411 kts 307°
2026-05-03 21:08 46.03875 6.69941 19002 ft 407 kts 324°
2026-05-03 21:08 46.06390 6.68067 18998 ft 409 kts 335°
2026-05-03 21:08 46.09089 6.66718 18997 ft 411 kts 341°
2026-05-03 21:08 46.11829 6.65562 18994 ft 410 kts 341°
2026-05-03 21:09 46.14562 6.64364 18992 ft 410 kts 340°
2026-05-03 21:09 46.17253 6.63021 18991 ft 409 kts 337°
2026-05-03 21:09 46.19898 6.61527 18991 ft 408 kts 335°
2026-05-03 21:09 46.22508 6.59925 18992 ft 407 kts 334°
2026-05-03 21:10 46.25076 6.58292 18990 ft 407 kts 334°
2026-05-03 21:10 46.27685 6.56623 18990 ft 407 kts 334°
2026-05-03 21:10 46.30281 6.54982 18996 ft 407 kts 334°
2026-05-03 21:10 46.32897 6.53406 18994 ft 408 kts 339°
2026-05-03 21:11 46.35695 6.52665 18991 ft 413 kts 357°
2026-05-03 21:11 46.38543 6.53160 18994 ft 416 kts 14°
2026-05-03 21:11 46.41200 6.54828 18993 ft 417 kts 31°
2026-05-03 21:11 46.43409 6.57491 18991 ft 417 kts 49°
2026-05-03 21:12 46.44994 6.61001 18995 ft 416 kts 66°
2026-05-03 21:12 46.45791 6.65008 18993 ft 414 kts 82°
2026-05-03 21:12 46.46340 6.69103 18989 ft 415 kts 74°
2026-05-03 21:12 46.47462 6.72977 18988 ft 417 kts 61°
2026-05-03 21:13 46.49103 6.76448 18989 ft 417 kts 50°
2026-05-03 21:13 46.50972 6.79670 18997 ft 417 kts 50°
2026-05-03 21:13 46.52812 6.82921 18998 ft 417 kts 51°
2026-05-03 21:13 46.54619 6.86180 19001 ft 418 kts 51°
2026-05-03 21:14 46.56428 6.89480 18989 ft 418 kts 51°
2026-05-03 21:14 46.58249 6.92798 18999 ft 426 kts 51°
2026-05-03 21:14 46.60148 6.96244 19116 ft 443 kts 51°
2026-05-03 21:14 46.62097 6.99766 19238 ft 457 kts 51°
2026-05-03 21:15 46.64117 7.03407 19352 ft 469 kts 51°
2026-05-03 21:15 46.66186 7.07137 19490 ft 477 kts 51°
2026-05-03 21:15 46.68265 7.10886 20013 ft 476 kts 51°
2026-05-03 21:15 46.70347 7.14644 20444 ft 477 kts 51°
2026-05-03 21:16 46.72436 7.18420 20822 ft 480 kts 51°
2026-05-03 21:16 46.74544 7.22237 21172 ft 483 kts 51°
2026-05-03 21:16 46.76656 7.26073 21542 ft 486 kts 51°
2026-05-03 21:16 46.78775 7.29929 21894 ft 489 kts 51°
2026-05-03 21:17 46.80905 7.33812 22229 ft 492 kts 51°
2026-05-03 21:17 46.82322 7.36401 22444 ft 494 kts 51°
2026-05-03 21:17 46.85203 7.41668 22853 ft 498 kts 51°
2026-05-03 21:17 46.87375 7.45641 23171 ft 501 kts 51°
2026-05-03 21:18 46.89551 7.49639 23484 ft 504 kts 51°
2026-05-03 21:18 46.91733 7.53661 23766 ft 506 kts 51°
2026-05-03 21:18 46.93931 7.57725 24036 ft 508 kts 51°
2026-05-03 21:18 46.96123 7.61788 24315 ft 510 kts 51°
2026-05-03 21:19 46.98311 7.65841 24868 ft 505 kts 51°
2026-05-03 21:19 47.00487 7.69866 25277 ft 504 kts 51°
2026-05-03 21:19 47.02635 7.73840 25603 ft 505 kts 51°
2026-05-03 21:19 47.04818 7.77881 25914 ft 507 kts 51°
2026-05-03 21:20 47.07009 7.81946 26205 ft 509 kts 51°
2026-05-03 21:20 47.09202 7.86028 26494 ft 510 kts 51°
2026-05-03 21:20 47.11432 7.90184 26791 ft 512 kts 51°
2026-05-03 21:20 47.13601 7.94309 27335 ft 508 kts 55°
2026-05-03 21:21 47.15487 7.98606 27766 ft 507 kts 58°
2026-05-03 21:21 47.17371 8.03004 28114 ft 509 kts 58°
2026-05-03 21:21 47.19253 8.07418 28441 ft 511 kts 58°
2026-05-03 21:21 47.21138 8.11856 28761 ft 513 kts 58°
2026-05-03 21:22 47.23026 8.16312 29069 ft 515 kts 58°
2026-05-03 21:22 47.24920 8.20787 29437 ft 516 kts 58°
2026-05-03 21:22 47.26814 8.25267 29882 ft 515 kts 58°
2026-05-03 21:22 47.28700 8.29729 30370 ft 513 kts 58°
2026-05-03 21:23 47.30713 8.34060 30753 ft 512 kts 51°
2026-05-03 21:23 47.33042 8.38017 31213 ft 509 kts 48°
2026-05-03 21:23 47.35390 8.41900 31706 ft 507 kts 48°
2026-05-03 21:23 47.37742 8.45792 32057 ft 508 kts 48°
2026-05-03 21:24 47.40087 8.49689 32408 ft 508 kts 48°
2026-05-03 21:24 47.42432 8.53600 32788 ft 509 kts 48°
2026-05-03 21:24 47.44775 8.57515 33183 ft 508 kts 48°
2026-05-03 21:24 47.47115 8.61427 33588 ft 508 kts 48°
2026-05-03 21:25 47.49455 8.65345 33981 ft 509 kts 48°
2026-05-03 21:25 47.51801 8.69281 34078 ft 508 kts 48°
2026-05-03 21:25 47.56522 8.76941 34086 ft 497 kts 41°
2026-05-03 21:26 47.62204 8.82551 34085 ft 490 kts 22°
2026-05-03 21:26 47.68641 8.85590 34083 ft 485 kts 13°
2026-05-03 21:27 47.75148 8.88251 34070 ft 485 kts 13°
2026-05-03 21:27 47.81725 8.90113 34070 ft 481 kts
2026-05-03 21:28 47.88385 8.91102 34061 ft 482 kts
2026-05-03 21:28 47.95059 8.92094 34057 ft 482 kts
2026-05-03 21:29 48.01761 8.93091 34046 ft 483 kts
2026-05-03 21:29 48.08459 8.94096 34048 ft 484 kts
2026-05-03 21:30 48.15171 8.95113 34046 ft 485 kts
2026-05-03 21:30 48.21885 8.96121 34041 ft 485 kts
2026-05-03 21:31 48.28575 8.97129 34044 ft 486 kts
2026-05-03 21:31 48.35320 8.98153 34041 ft 486 kts
2026-05-03 21:32 48.42049 8.99188 34035 ft 486 kts
2026-05-03 21:32 48.48789 9.00229 34032 ft 487 kts